Regional Weather Roundup
Issued by NWS

Home | Current Version | Previous Version | Graphics & Text | Print | Product List | Glossary Off
Versions: 1 2 3 4 5 6 7 8 9 10 11 12 13 14 15 16 17 18 19 20 21 22 23 24 25 26 27 28 29 30 31 32 33 34 35 36 37 38 39 40 41 42 43 44 45 46 47 48 49 50

000
ASUS43 KMPX 162201
RWRMN
WEATHER ROUNDUP FOR MINNESOTA
NATIONAL WEATHER SERVICE TWIN CITIES/CHANHASSEN MN
500 PM CDT WED APR 16 2014


NOTE: "FAIR" INDICATES FEW OR NO CLOUDS BELOW 12,000 FEET WITH NO
SIGNIFICANT WEATHER AND/OR OBSTRUCTIONS TO VISIBILITY. N/A MEANS
CURRENT SKY AND/OR WEATHER CONDITIONS ARE NOT AVAILABLE.

MNZ060>063-068>070-162300-
   Twin Cities Metro

CITY           SKY/WX    TMP DP  RH WIND       PRES   REMARKS
TWIN CITIES    LGT SNOW  32  32 100 NE14      29.89S VSB 1   WCI  22
ST PAUL        LGT SNOW  34  31  88 NE13G21   29.91S FOG     WCI  25
CRYSTAL        SNOW      32  30  92 NE9       29.90S VSB 1/4 WCI  24
BLAINE         LGT SNOW  34  34 100 NE12      29.91F VSB 1   WCI  25
EDEN PRAIRIE   LGT RAIN  34  31  88 NE14      29.86S FOG     WCI  25
LAKEVILLE      LGT RAIN  34  32  93 N15       29.84S WCI  24
SOUTH ST PAUL  LGT RAIN  37  34  90 N12       29.88S
LAKE ELMO      LGT SNOW  36  32  87 NE13      29.91R
$$
MNZ001>005-007-008-013>017-022>024-027-028-162300-
   Northwest Minnesota

CITY           SKY/WX    TMP DP  RH WIND       PRES   REMARKS
BEMIDJI        CLOUDY    35  15  44 E15       30.12R WCI  26
HALLOCK        CLOUDY    37   5  25 NE12      30.22S
ROSEAU         SUNNY     37   3  23 E14       30.22S
WARROAD        SUNNY     36  10  35 NE12      30.24R
THIEF RVR FALL SUNNY     39   7  26 NE18      30.16S
CROOKSTON      PTSUNNY   41  12  30 NE13G21   30.16R
FOSSTON        PTSUNNY   41  12  30 NE13G20   30.12R
DETROIT LAKES  CLOUDY    32  23  69 E16G23    30.09R WCI  21
MOORHEAD       PTSUNNY   36  25  64 NE17      30.12R
PARK RAPIDS    CLOUDY    30  21  69 NE14G23   30.08R WCI  19
$$
MNZ006-009>011-018-025>026-162300-
   North Central Minnesota

CITY           SKY/WX    TMP DP  RH WIND       PRES   REMARKS
BAUDETTE       SUNNY     37   4  25 E12G20    30.20R
FLAG ISLAND    SUNNY     32   7  34 N15       30.24R WCI  22
INTL FALLS     PTSUNNY   36   3  25 E14       30.19S
WASKISH        PTSUNNY   39   9  28 NE12G17   30.15S
BIG FORK       CLOUDY    37  10  32 NE9G16    30.14S
LONGVILLE      LGT SNOW  28  25  86 NE6G16    30.10R WCI  22
GRAND RAPIDS   CLOUDY    27  21  80 NE8G16    30.12S WCI  18
CRANE LAKE     CLOUDY    36   5  27 NE6       30.20S
ORR            CLOUDY    36   3  25 E5        30.14R
COOK           CLOUDY    30  10  43 E10       30.17R WCI  21
$$
MNZ012-019>021-037-162300-
   Northeast Minnesota

CITY           SKY/WX    TMP DP  RH WIND       PRES   REMARKS
DULUTH         SNOW      26  22  84 E22G31    30.10R VSB 1/2 WCI  12
ELY            LGT SNOW  27  18  69 E10G18    30.19R WCI  17
HIBBING        LGT SNOW  28  22  78 NE14G20   30.14R VSB 1   WCI  17
EVELETH        LGT SNOW  27  21  80 E14G23    30.16R WCI  15
DULUTH HARBOR  SNOW      28  27  93 NE25G32   30.14S VSB 1/4 WCI  14
TWO HARBORS    SNOW      27  21  80 NE14G21   30.14R VSB 1/2 WCI  15
SILVER BAY     SNOW      25  25 100 NE13G20   30.17R VSB 1/2 WCI  13
GRAND MARAIS     N/A     28  21  75 NE12      30.28R WCI  18
G MARAIS ARPRT LGT SNOW  21  16  79 E8        30.21R VSB 1   WCI  12
$$
MNZ029>031-032-039>041-046>048-054>057-064-162300-
   West Central Minnesota

CITY           SKY/WX    TMP DP  RH WIND       PRES   REMARKS
FERGUS FALLS   CLOUDY    34  21  60 NE17G25   30.04R WCI  23
WHEATON        CLOUDY    36  28  75 NE15      30.07R
MORRIS         CLOUDY    32  27  80 NE22      29.99R WCI  19
ALEXANDRIA     LGT SNOW  29  25  85 NE14G26   30.00R FOG     WCI  18
ELBOW LAKE     CLOUDY    31  24  77 NE13G23   30.03R WCI  21
WADENA         FLURRIES  28  21  74 NE20G28   30.05R WCI  15
GLENWOOD       LGT SNOW  28  27  93 NE22      29.97R VSB 1   WCI  15
APPLETON       LGT SNOW  34  28  80 NE20G25   29.97R WCI  22
BENSON           N/A     30  27  86 E13G21    29.96R WCI  20
ORTONVILLE     CLOUDY    30  27  86 NE20G29   30.00R FOG     WCI  18
MADISON        LGT SNOW  34  30  86 N17       29.96R WCI  23
WILLMAR        SNOW      30  27  86 NE23G29   29.92R VSB 1/2 WCI  17
$$
MNZ033>034-036-042>043-049>051-058-059-162300-
   Central Minnesota

CITY           SKY/WX    TMP DP  RH WIND       PRES   REMARKS
ST CLOUD       SNOW      29  26  89 NE14G24   29.96R VSB 1/4 WCI  18
SAUK CENTRE    LGT SNOW  28  26  89 NE14G20   29.98R WCI  17
PAYNESVILLE    LGT SNOW  29  27  92 NE15G21   29.94S VSB 3/4 WCI  17
AITKIN         LGT SNOW  30  25  80 NE15G22   30.05R WCI  19
PINE RIVER     LGT SNOW  28  25  86 NE10G21   30.11R WCI  19
BRAINERD       LGT SNOW  32  24  72 NE14G23   30.05R VSB 1   WCI  22
STAPLES        LGT SNOW  28  25  86 NE13G21   30.05R WCI  18
LONG PRAIRIE   CLOUDY    28  25  86 NE14G20   29.99R WCI  17
LITTLE FALLS   LGT SNOW  28  27  93 NE6       30.01R VSB 3/4 WCI  22
LITCHFIELD     SNOW      30  30 100 NE15G21   29.91R VSB 1/4 WCI  19
BUFFALO        SNOW      31  29  92 N15       29.93R VSB 1/2 WCI  20
MAPLE LAKE     LGT SNOW  31  30  95 NE9G18    29.94R VSB 3/4 WCI  23
$$
MNZ037-044-045-052-053-162300-
   East Central Minnesota

CITY           SKY/WX    TMP DP  RH WIND       PRES   REMARKS
PRINCETON      LGT SNOW  30  28  93 N14G21    29.97R VSB 3/4 WCI  20
MORA           SNOW      30  27  86 NE8G17    30.02R VSB 1/2 WCI  23
CAMBRIDGE      SNOW      30  25  80 NE9       29.95R VSB 1/4 WCI  22
RUSH CITY      MIX PCPN  30  28  91 NE12G22   29.99R WCI  20
MOOSE LAKE     LGT SNOW  28  25  86 NE10G20   30.05S VSB 3/4 WCI  19
HINCKLEY       LGT SNOW  30  28  93 NE13G20   30.02S VSB 3/4 WCI  20
CLOQUET        SNOW      27  25  93 NE13G25   30.09R VSB 1/2 WCI  16
MCGREGOR       CLOUDY    28  27  93 NE10G20   30.08R WCI  19
$$
MNZ071>073-080-081-089-090-097-098-162300-
   Southwest Minnesota

CITY           SKY/WX    TMP DP  RH WIND       PRES   REMARKS
MONTEVIDEO     LGT SNOW  30  28  93 E15G25    29.94R VSB 3/4 WCI  19
GRANITE FALLS  SNOW      30  28  91 N18       29.91R VSB 1/4 WCI  18
CANBY          LGT SNOW  31  28  91 N16G24    29.95R VSB 3/4 WCI  20
MARSHALL       CLOUDY    30  27  86 NE20G26   29.87R VSB 1/4 WCI  18
REDWOOD FALLS  LGT SNOW  32  30  92 NE14G23   29.85S VSB 3/4 WCI  22
OLIVIA         LGT SNOW  32  30  93 NE14      29.86S WCI  22
PIPESTONE        N/A     30  28  93 NE21G28   29.81R WCI  17
WINDOM         LGT RAIN  37  36  93 N15       29.79R
WORTHINGTON    CLOUDY    37  30  75 N18       29.78R
JACKSON        CLOUDY    41  34  75 N16G26    29.76R
TRACY          LGT SNOW  32  31  96 N21       29.84R WCI  20
SLAYTON        LGT SNOW  32  32 100 N21       29.80R WCI  20
$$
MNZ065>067-074>077-082>085-091>093-162300-
   South Central Minnesota

CITY           SKY/WX    TMP DP  RH WIND       PRES   REMARKS
MANKATO        CLOUDY    39  32  75 NE20G26   29.79S
NEW ULM        CLOUDY    36  36 100 NE16G23   29.81R FOG
ST JAMES       LGT RAIN  39  37  93 N16       29.80R
FAIRMONT       CLOUDY    45  34  65 N21       29.75S
GLENCOE        CLOUDY    33  30  89 N12G20    29.86R FOG     WCI  24
FARIBAULT      DRIZZLE   43  36  75 NW9       29.80R
OWATONNA       DRIZZLE   52  36  54 S18G25    29.78R
WASECA         LGT RAIN  50  39  66 S17G29    29.79R
ALBERT LEA     DRIZZLE   54  34  47 S6        29.76S
$$
MNZ078>079-086>088-094>096-162300-
   Southeast Minnesota

CITY           SKY/WX    TMP DP  RH WIND       PRES   REMARKS
ROCHESTER      CLOUDY    51  34  52 SE21G29   29.81S
RED WING       LGT RAIN  48  37  66 S12G17    29.83S
STANTON        CLOUDY    49  40  72 E5        29.79F
DODGE CENTER   CLOUDY    52  36  54 SE15      29.79F
WINONA         CLOUDY    54  30  40 S15G23    29.87F
AUSTIN         CLOUDY    52  36  54 S12G17    29.78S
PRESTON        CLOUDY    52  33  47 S16G24    29.84R
$$
ABBREVIATIONS USED IN REMARKS
   TC - TEMPERATURES IN CELSIUS
  WCI - WIND CHILL INDEX
   HX - HEAT INDEX
  VSB - VISIBILITY
$$


USA.gov is the U.S. government's official web portal to all federal, state and local government web resources and services.